Погода в Маргилане

Узбекистан     40°28′08″N   71°43′14″E
темп.,
°C
ветер,
м/с
пор.,
м/с
влажн.,
%
обл.,
%
осадки,
мм/ч
давл.,
гПа
погр.,
м
28 сентября, вт
вт2823:00+17вюв33470 0.0 101538
02:00+16всв23500 0.0 101426
05:00+15вюв22580 0.0 101413
08:00+19всв23430 0.0 1015263
11:00+25ссв22280 0.0 1013905
14:00+29с11205 0.0 10101284
17:00+29з111918 0.0 100942
20:00+22юз113162 0.0 101111
29 сентября, ср
ср2923:00+21юв223362 0.0 101111
02:00+20з01355 0.0 101111
05:00+17зюз34440 0.0 101255
08:00+21зюз58350 0.0 1014352
11:00+27з562389 0.0 10131002
14:00+30з4519100 0.0 10101426
17:00+29з571897 0.0 1011828
20:00+23юз5112416 0.0 1013280
30 сентября, чт
чт3023:00+21юз35280 0.0 101472
02:00+18юв01340 0.0 101512
05:00+17юв11370 0.0 101714
08:00+20зюз35310 0.0 1017318
11:00+27зюз44200 0.0 10161034
14:00+30з44160 0.0 10131474
17:00+29з35160 0.0 1012273
20:00+21юз22283 0.0 101411
1 октября, пт
пт123:00+19юв22300 0.0 101513
02:00+18всв11320 0.0 101511
05:00+16всв12360 0.0 101611
08:00+19з46326 0.0 1017330
11:00+26зсз43220 0.0 10151051
14:00+28з76195 0.0 10121418
17:00+26зсз572056 0.0 1012819
20:00+21ююв2327100 0.0 101496
2 октября, сб
сб223:00+19вюв223167 0.0 101526
02:00+19с1232100 0.0 101570
05:00+18з6113472 0.0 1017308
08:00+19з792945 0.0 1018621
11:00+22з892595 0.0 1018992
14:00+24з7823100 0.0 10151052
17:00+23зсз572668 0.0 10171079
20:00+19зсз5103238 0.0 1019521